Location: Newark
(7.0858°N, 171.3717°E)
Time: 10:21:13
(UTC+00:00)

A-11 Canister half - Pass Details

Date: 07 August 2021
Orbit: 1526 x 1683 km, 47.3° (Epoch: 23 September)

Event Time Altitude Azimuth Distance (km) Brightness Sun altitude
Rises 17:29:40 0° 189° (S) 4,795 11.3 -14.7°
Reaches altitude 10° 17:33:52 10° 174° (S) 3,837 11.0 -13.8°
Maximum altitude 17:40:41 21° 129° (SE) 3,095 11.0 -12.2°
Drops below altitude 10° 17:47:34 10° 84° (E) 3,913 12.6 -10.5°
Sets 17:51:50 0° 69° (ENE) 4,916 14.1 -9.5°
